Terminal Aerodrome Forecast
Issued by NWS Houston/Galveston, TX

Home | Current Version | Previous Version | Text Only | Print | Product List | Glossary On
Versions: 1 2 3 4 5 6 7 8 9 10 11 12 13 14 15 16 17 18 19 20 21 22 23 24 25 26 27 28 29
000
FTUS44 KHGX 261720
TAFGLS
TAF
KGLS 261720Z 2618/2718 23014KT P6SM SKC
     FM270200 VRB06KT P6SM SKC
     FM270800 36009KT P6SM SKC
     FM271200 03014KT P6SM SKC=

USA.gov is the U.S. government's official web portal to all federal, state and local government web resources and services.